When you browse on this site, cookies collect data to enhance your experience and personalize the content and advertising you see.
Visit our Privacy Policy to learn more. By continuing to use the site, you agree to this use of cookies and data.
  • In United Kingdom
  • List of Countries
  • For 7 days
  • Water Temperature
  • Weather Map
  • Weather Widgets
  • user-avatar
    Login

    Hourly Weather Perth

    Today, 8 December, Sunday

    Time Temperature Precipitation Wind Pressure Humidity
    00:00 +18°C° 0 mm 3 mps 759 mmHg 76%
    01:00 +18°C° 0 mm 3 mps 759 mmHg 79%
    02:00 +18°C° 0 mm 4 mps 759 mmHg 82%
    03:00 +17°C° 0 mm 4 mps 760 mmHg 82%
    04:00 +17°C° 0 mm 3 mps 760 mmHg 82%
    05:00 +16°C° 0 mm 3 mps 760 mmHg 82%
    06:00 +17°C° 0 mm 3 mps 760 mmHg 73%
    07:00 +18°C° 0 mm 3 mps 761 mmHg 65%
    08:00 +20°C° 0 mm 4 mps 762 mmHg 57%
    09:00 +21°C° 0 mm 4 mps 762 mmHg 52%
    10:00 +23°C° 0 mm 4 mps 762 mmHg 46%
    11:00 +25°C° 0 mm 4 mps 762 mmHg 40%
    12:00 +25°C° 0 mm 5 mps 761 mmHg 41%
    13:00 +26°C° 0 mm 6 mps 761 mmHg 42%
    14:00 +26°C° 0 mm 7 mps 761 mmHg 43%
    15:00 +24°C° 0 mm 7 mps 761 mmHg 46%
    16:00 +23°C° 0 mm 7 mps 761 mmHg 49%
    17:00 +22°C° 0 mm 6 mps 761 mmHg 52%
    18:00 +21°C° 0 mm 6 mps 761 mmHg 56%
    19:00 +20°C° 0 mm 5 mps 762 mmHg 61%
    20:00 +19°C° 0 mm 4 mps 762 mmHg 65%
    21:00 +19°C° 0 mm 4 mps 763 mmHg 66%
    22:00 +18°C° 0 mm 4 mps 763 mmHg 66%
    23:00 +18°C° 0 mm 3 mps 763 mmHg 67%

    Tomorrow, 9 December, Monday

    Time Temperature Precipitation Wind Pressure Humidity
    00:00 +18°C° 0 mm 3 mps 763 mmHg 65%
    01:00 +18°C° 0 mm 3 mps 763 mmHg 63%
    02:00 +17°C° 0 mm 3 mps 763 mmHg 61%
    03:00 +17°C° 0 mm 3 mps 763 mmHg 63%
    04:00 +17°C° 0 mm 3 mps 764 mmHg 65%
    05:00 +17°C° 0 mm 4 mps 764 mmHg 67%
    06:00 +18°C° 0 mm 4 mps 764 mmHg 60%
    07:00 +20°C° 0 mm 4 mps 764 mmHg 54%
    08:00 +21°C° 0 mm 4 mps 764 mmHg 47%
    09:00 +25°C° 0 mm 3 mps 764 mmHg 41%
    10:00 +27°C° 0 mm 3 mps 764 mmHg 36%
    11:00 +29°C° 0 mm 2 mps 764 mmHg 30%
    12:00 +30°C° 0 mm 3 mps 763 mmHg 30%
    13:00 +32°C° 0 mm 4 mps 763 mmHg 30%
    14:00 +32°C° 0 mm 5 mps 762 mmHg 30%
    15:00 +30°C° 0 mm 6 mps 762 mmHg 32%
    16:00 +29°C° 0 mm 6 mps 762 mmHg 34%
    17:00 +28°C° 0 mm 7 mps 761 mmHg 37%
    18:00 +27°C° 0 mm 6 mps 762 mmHg 39%
    19:00 +24°C° 0 mm 6 mps 762 mmHg 41%
    20:00 +22°C° 0 mm 6 mps 762 mmHg 43%
    21:00 +22°C° 0 mm 5 mps 762 mmHg 46%
    22:00 +21°C° 0 mm 4 mps 763 mmHg 49%
    23:00 +21°C° 0 mm 4 mps 763 mmHg 52%

    Day after tomorrow, 10 December, Tuesday

    Time Temperature Precipitation Wind Pressure Humidity
    00:00 +21°C° 0 mm 4 mps 762 mmHg 50%
    01:00 +20°C° 0 mm 4 mps 762 mmHg 47%
    02:00 +20°C° 0 mm 4 mps 762 mmHg 45%
    03:00 +20°C° 0 mm 3 mps 762 mmHg 48%
    04:00 +19°C° 0 mm 3 mps 762 mmHg 50%
    05:00 +19°C° 0 mm 3 mps 762 mmHg 53%
    06:00 +20°C° 0 mm 3 mps 762 mmHg 48%
    07:00 +22°C° 0 mm 3 mps 762 mmHg 42%
    08:00 +24°C° 0 mm 3 mps 762 mmHg 37%
    09:00 +27°C° 0 mm 3 mps 762 mmHg 32%
    10:00 +30°C° 0 mm 2 mps 762 mmHg 26%
    11:00 +34°C° 0 mm 2 mps 762 mmHg 21%
    12:00 +34°C° 0 mm 3 mps 761 mmHg 22%
    13:00 +35°C° 0 mm 4 mps 760 mmHg 24%
    14:00 +35°C° 0 mm 5 mps 760 mmHg 25%
    15:00 +34°C° 0 mm 6 mps 759 mmHg 27%
    16:00 +33°C° 0 mm 6 mps 759 mmHg 28%
    17:00 +32°C° 0 mm 6 mps 759 mmHg 30%
    18:00 +30°C° 0 mm 6 mps 759 mmHg 33%
    19:00 +28°C° 0 mm 5 mps 759 mmHg 36%
    20:00 +26°C° 0 mm 5 mps 760 mmHg 39%
    21:00 +26°C° 0 mm 5 mps 760 mmHg 38%
    22:00 +26°C° 0 mm 6 mps 760 mmHg 37%
    23:00 +26°C° 0 mm 7 mps 760 mmHg 36%

    11 December, Wednesday

    Time Temperature Precipitation Wind Pressure Humidity
    00:00 +24°C° 0 mm 7 mps 760 mmHg 37%
    01:00 +22°C° 0 mm 7 mps 760 mmHg 38%
    02:00 +21°C° 0 mm 7 mps 760 mmHg 39%
    03:00 +21°C° 0 mm 7 mps 761 mmHg 39%
    04:00 +21°C° 0 mm 7 mps 761 mmHg 39%
    05:00 +20°C° 0 mm 7 mps 761 mmHg 39%
    06:00 +22°C° 0 mm 7 mps 761 mmHg 37%
    07:00 +23°C° 0 mm 7 mps 762 mmHg 35%
    08:00 +26°C° 0 mm 7 mps 762 mmHg 33%
    09:00 +29°C° 0 mm 6 mps 761 mmHg 29%
    10:00 +32°C° 0 mm 6 mps 761 mmHg 25%
    11:00 +35°C° 0 mm 6 mps 761 mmHg 21%
    12:00 +36°C° 0 mm 5 mps 760 mmHg 19%
    13:00 +37°C° 0 mm 4 mps 759 mmHg 17%
    14:00 +40°C° 0 mm 4 mps 759 mmHg 15%
    15:00 +40°C° 0 mm 4 mps 758 mmHg 16%
    16:00 +38°C° 0 mm 4 mps 758 mmHg 17%
    17:00 +38°C° 0 mm 4 mps 758 mmHg 17%
    18:00 +37°C° 0 mm 4 mps 758 mmHg 18%
    19:00 +35°C° 0 mm 4 mps 758 mmHg 18%
    20:00 +33°C° 0 mm 4 mps 759 mmHg 19%
    21:00 +32°C° 0 mm 6 mps 760 mmHg 23%
    22:00 +29°C° 0 mm 8 mps 760 mmHg 28%
    23:00 +28°C° 0 mm 9 mps 761 mmHg 33%

    12 December, Thursday

    Time Temperature Precipitation Wind Pressure Humidity
    00:00 +27°C° 0 mm 9 mps 761 mmHg 35%
    01:00 +26°C° 0 mm 9 mps 761 mmHg 37%
    02:00 +24°C° 0 mm 9 mps 761 mmHg 39%
    03:00 +23°C° 0 mm 8 mps 761 mmHg 41%
    04:00 +22°C° 0 mm 8 mps 761 mmHg 42%
    05:00 +22°C° 0 mm 8 mps 761 mmHg 43%
    06:00 +24°C° 0 mm 8 mps 762 mmHg 39%
    07:00 +26°C° 0 mm 7 mps 762 mmHg 36%
    08:00 +28°C° 0 mm 7 mps 762 mmHg 33%
    09:00 +30°C° 0 mm 7 mps 762 mmHg 29%
    10:00 +34°C° 0 mm 6 mps 762 mmHg 24%
    11:00 +36°C° 0 mm 6 mps 762 mmHg 20%
    12:00 +38°C° 0 mm 4 mps 761 mmHg 18%
    13:00 +39°C° 0 mm 3 mps 760 mmHg 17%
    14:00 +40°C° 0 mm 2 mps 760 mmHg 15%
    15:00 +39°C° 0 mm 3 mps 759 mmHg 16%
    16:00 +40°C° 0 mm 4 mps 759 mmHg 17%
    17:00 +39°C° 0 mm 5 mps 759 mmHg 19%
    18:00 +36°C° 0 mm 4 mps 759 mmHg 21%
    19:00 +34°C° 0 mm 4 mps 759 mmHg 23%
    20:00 +32°C° 0 mm 4 mps 760 mmHg 25%
    21:00 +30°C° 0 mm 4 mps 760 mmHg 25%
    22:00 +29°C° 0 mm 4 mps 760 mmHg 24%
    23:00 +29°C° 0 mm 3 mps 761 mmHg 24%

    13 December, Friday

    Time Temperature Precipitation Wind Pressure Humidity
    00:00 +28°C° 0 mm 4 mps 760 mmHg 22%
    01:00 +28°C° 0 mm 5 mps 760 mmHg 20%
    02:00 +28°C° 0 mm 5 mps 760 mmHg 19%
    03:00 +27°C° 0 mm 5 mps 760 mmHg 20%
    04:00 +27°C° 0 mm 5 mps 761 mmHg 20%
    05:00 +26°C° 0 mm 5 mps 761 mmHg 21%
    06:00 +28°C° 0 mm 5 mps 761 mmHg 20%
    07:00 +30°C° 0 mm 5 mps 761 mmHg 19%
    08:00 +33°C° 0 mm 5 mps 761 mmHg 19%
    09:00 +35°C° 0 mm 5 mps 761 mmHg 17%
    10:00 +37°C° 0 mm 4 mps 761 mmHg 16%
    11:00 +39°C° 0 mm 3 mps 761 mmHg 15%
    12:00 +39°C° 0 mm 3 mps 760 mmHg 14%
    13:00 +40°C° 0 mm 3 mps 760 mmHg 14%
    14:00 +41°C° 0 mm 4 mps 759 mmHg 13%
    15:00 +41°C° 0 mm 4 mps 759 mmHg 14%
    16:00 +40°C° 0 mm 4 mps 758 mmHg 15%
    17:00 +40°C° 0 mm 5 mps 758 mmHg 16%
    18:00 +36°C° 0 mm 4 mps 758 mmHg 18%
    19:00 +34°C° 0 mm 4 mps 759 mmHg 19%
    20:00 +32°C° 0 mm 4 mps 759 mmHg 21%
    21:00 +30°C° 0 mm 4 mps 759 mmHg 21%
    22:00 +29°C° 0 mm 3 mps 759 mmHg 22%
    23:00 +29°C° 0 mm 3 mps 759 mmHg 22%
    Show more